Regional Weather Roundup
Issued by NWS

Home | Current Version | Previous Version | Graphics & Text | Print | Product List | Glossary On
Versions: 1 2 3 4 5 6 7 8 9 10 11 12 13 14 15 16 17 18 19 20 21 22 23 24 25 26 27 28 29 30 31 32 33 34 35 36 37 38 39 40 41 42 43 44 45 46 47 48 49 50
463
ASUS44 KLIX 222005
RWRLA
LOUISIANA WEATHER ROUNDUP
NATIONAL WEATHER SERVICE NEW ORLEANS LA
200 PM CST SAT NOV 22 2014

NOTE: "FAIR" INDICATES FEW OR NO CLOUDS BELOW 12,000 FEET WITH NO
      SIGNIFICANT WEATHER AND/OR OBSTRUCTIONS TO VISIBILITY.
      SKY/WX - SKY CONDITION AND SIGNIFICANT WEATHER.
      TMP - AIR TEMPERATURE.    DP   - DEWPOINT TEMPERATURE.
      RH  - RELATIVE HUMIDITY.  PRES - PRESSURE.
      HX  - HEAT INDEX.         WCI  - WIND CHILL INDEX.

*  THESE STATIONS ARE NOT NWS OR FAA STATIONS AND ARE NOT UNDER
   NWS QUALITY CONTROL.

LAZ040-048-061>063-065-066-069-222100-
SOUTHEAST LOUISIANA

CITY           SKY/WX    TMP DP  RH WIND       PRES   REMARKS
N.O. AUDUBON     N/A     69  62  76 MISG        N/A
N.O. INTL ARPT CLOUDY    67  58  72 E9        30.07S
N.O. LAKEFRONT CLOUDY    65  58  78 E14       30.07S
N.O. DOWNTOWN* FAIR      66  55  68 CALM      30.07S
SLIDELL        CLOUDY    65  56  72 E8        30.07F
BATON ROUGE    CLOUDY    69  58  67 SE15G23   30.07F
BOOTHVILLE     CLOUDY    67  63  87 E10       30.06F
BELLE CHASSE   CLOUDY    68  59  73 E15G21    30.06S
BOGALUSA*        N/A     70  54  56 E5        30.10F
NEW ROADS*     CLOUDY    69  59  70 E8        30.07F
GONZALES*      MOCLDY    66  59  77 NE6       30.07F
HAMMOND*       CLOUDY    70  55  60 E12       30.10R
HOUMA*         NOT AVBL
PORT FOURCHON* CLEAR     70  64  83 E12G18    30.07R

$$

LAZ041-044-053-054-222100-
SOUTHWEST LOUISIANA

CITY           SKY/WX    TMP DP  RH WIND       PRES   REMARKS
LAKE CHARLES   CLOUDY    70  60  70 SE20G29   29.98F
LAFAYETTE      CLOUDY    71  59  65 VRB7      30.04F
PATTERSON      CLOUDY    72  61  68 SE12G20   30.07S
SALT POINT       N/A     72  61  68 SE12G18   30.03F
NEW IBERIA     CLOUDY    73  60  63 SE16G23   30.04F
CHENAULT AIRPK PTSUNNY   72  61  68 SE17G29   29.99F

$$

LAZ027-028-222100-
CENTRAL LOUISIANA

CITY           SKY/WX    TMP DP  RH WIND       PRES   REMARKS
FORT POLK      CLOUDY    68  60  75 SE12      29.99F
ALEXANDRIA INT CLOUDY    69  56  62 SE16      30.03F
ALEXANDRIA     CLOUDY    70  56  61 SE13      30.04F

$$

LAZ001-002-222100-
NORTHWEST LOUISIANA

CITY           SKY/WX    TMP DP  RH WIND       PRES   REMARKS
SHREVEPORT     CLOUDY    70  58  65 S14       29.98F
BARKSDALE AFB  PTSUNNY   69  57  64 S14       29.99F
DTN SHREVEPORT PTSUNNY   69  56  62 S12       29.99F

$$

LAZ014-016-222100-
NORTHEAST LOUISIANA

CITY           SKY/WX    TMP DP  RH WIND       PRES   REMARKS
MONROE         PTSUNNY   69  56  62 S9        30.06F
TALLULAH       PTSUNNY   70  53  54 SE9       30.07F

$$




USA.gov is the U.S. government's official web portal to all federal, state and local government web resources and services.